Weather in Pocatello

United States     42°52′23″N   112°27′00″W
temp.,
°C
wind,
m/s
gust,
m/s
humid.,
%
clouds,
%
prec.,
mm/h
press.,
hPa
HPBL,
m
7 may, fri
fri700:00+13se334819 0.0 101017
03:00+12se33485 0.0 100819
06:00+9wsw2256100 0.0 101013
09:00+14wsw375997 0.0 1010726
12:00+16w77485 0.0 10081468
15:00+15w101051100 0.1 10082138
18:00+9w51074100 2.3 1010789
21:00+8w71362100 0.4 1010677
8 may, sat
sat800:00+5wsw71449100 0.4 1013639
03:00+1wsw1117580 0.0 1016850
06:00−1wsw1017630 0.0 1019734
09:00+1wsw1214535 0.0 1020920
12:00+6w101233100 0.1 10163079
15:00+7w111233100 0.0 10142913
18:00+7w101235100 0.1 10132522
21:00+4w8143992 0.1 1016706
9 may, sun
sun900:00+1sw22493 0.1 101833
03:00−1ssw22560 0.0 101915
06:00−1s225813 0.0 101915
09:00+4wsw234338 0.0 1017776
12:00+8w5436100 0.0 10152299
15:00+9w4432100 0.0 10132364
18:00+10wnw232939 0.0 10122451
21:00+5se114165 0.0 101310
10 may, mon
mon1000:00+3ssw115074 0.0 101411
03:00+2sse22549 0.0 101412
06:00+1nne115464 0.0 101510
09:00+6nw224797 0.0 1015372
12:00+9nw4343100 0.0 10131228
15:00+12nnw433428 0.0 10122122
18:00+12n343047 0.0 10102476
21:00+8nne365355 0.2 1013152
11 may, tue
tue1100:00+4s348592 0.9 101768
03:00+2wsw1188100 0.0 101810
06:00+2ssw009178 0.0 101910
09:00+7nw23682 0.0 1018556
12:00+11nnw45475 0.0 10171611
15:00+14nw4532100 0.0 10153069
18:00+14wnw353183 0.0 10152440
21:00+8sw32484 0.0 101714